Hayden, CO

3:29 PM MDT on October 17, 2017 (GMT -0600)
Yampa Valley

Weather History for KHDN - November, 2012

Change the Weather History Date:

Wednesday, November 28, 2012

  Actual Average Record
Temperature  
Mean Temperature 37 °F -  
Max Temperature 53 °F 33 °F 60 °F (1998)
Min Temperature 21 °F 11 °F -17 °F (1976)
Degree Days  
Heating Degree Days 28    
Moisture  
Dew Point 12 °F    
Average Humidity 43    
Maximum Humidity 63    
Minimum Humidity 21    
Precipitation  
Precipitation 0.00 in - - ()
Sea Level Pressure  
Sea Level Pressure 30.26 in    
Wind  
Wind Speed 10 mph (SSE)    
Max Wind Speed 15 mph    
Max Gust Speed 22 mph    
Visibility 10 miles    
Events      
Averages and records for this station are not official NWS values.
T = Trace of Precipitation, MM = Missing Value Source: NWS Daily Summary

Daily Weather History Graph

Daily Weather History Graph

Search for Another Location

Airport or City:

Trip Planner

Search our weather history database for the weather conditions in past years. The results will help you decide how hot, cold, wet, or windy it might be!

Date:

Astronomy

Nov. 28, 2012 Rise Set
Actual Time 7:10 AM MST 4:43 PM MST
Civil Twilight 6:40 AM MST 5:13 PM MST
Nautical Twilight 6:06 AM MST 5:47 PM MST
Astronomical Twilight 5:33 AM MST 6:20 PM MST
Moon 5:00 PM MST (11/28) 7:10 AM MST (11/28)
Length of Visible Light 10h 33m
Length of Day
9h 33m
Full, 100% of the Moon is Illuminated
Nov 28
Full
Dec 6
Last Quarter
Dec 13
New
Dec 19
First Quarter
Dec 28
Full

Hourly Weather History & Observations

Time (MST) Temp. Windchill Dew Point Humidity Pressure Visibility Wind Dir Wind Speed Gust Speed Precip Events Conditions
12:15 AM 26.6 °F 15.7 °F 10.4 °F 51% 30.33 in 10.0 mi SE 12.7 mph - N/A   Clear
12:35 AM 24.8 °F 13.4 °F 10.4 °F 54% 30.33 in 10.0 mi SE 12.7 mph - N/A   Clear
12:55 AM 24.8 °F 14.0 °F 10.4 °F 54% 30.34 in 10.0 mi SE 11.5 mph - N/A   Clear
1:15 AM 24.8 °F 14.6 °F 10.4 °F 54% 30.33 in 10.0 mi SE 10.4 mph - N/A   Clear
1:35 AM 26.6 °F 15.7 °F 10.4 °F 51% 30.33 in 10.0 mi SE 12.7 mph - N/A   Clear
2:15 AM 24.8 °F 14.6 °F 10.4 °F 54% 30.33 in 10.0 mi SE 10.4 mph - N/A   Clear
2:35 AM 24.8 °F 13.4 °F 10.4 °F 54% 30.34 in 10.0 mi ESE 12.7 mph - N/A   Clear
2:55 AM 24.8 °F 13.4 °F 10.4 °F 54% 30.33 in 10.0 mi SE 12.7 mph - N/A   Clear
3:35 AM 24.8 °F 12.9 °F 10.4 °F 54% 30.33 in 10.0 mi SE 13.8 mph - N/A   Clear
4:35 AM 23.0 °F 11.7 °F 8.6 °F 54% 30.32 in 10.0 mi SE 11.5 mph - N/A   Clear
4:55 AM 24.8 °F 13.4 °F 10.4 °F 54% 30.32 in 10.0 mi SE 12.7 mph - N/A   Clear
5:15 AM 23.0 °F 10.6 °F 8.6 °F 54% 30.32 in 10.0 mi SSE 13.8 mph - N/A   Clear
5:35 AM 21.2 °F 10.1 °F 8.6 °F 58% 30.33 in 10.0 mi SSE 10.4 mph - N/A   Clear
5:55 AM 21.2 °F 9.5 °F 8.6 °F 58% 30.33 in 10.0 mi SE 11.5 mph - N/A   Clear
6:15 AM 21.2 °F 8.9 °F 10.4 °F 63% 30.33 in 10.0 mi SE 12.7 mph - N/A   Clear
6:35 AM 23.0 °F 11.7 °F 10.4 °F 59% 30.32 in 10.0 mi ESE 11.5 mph - N/A   Clear
6:55 AM 23.0 °F 13.1 °F 10.4 °F 59% 30.33 in 10.0 mi SE 9.2 mph - N/A   Clear
7:15 AM 21.2 °F 8.3 °F 10.4 °F 63% 30.32 in 10.0 mi SE 13.8 mph - N/A   Clear
7:35 AM 23.0 °F 11.7 °F 10.4 °F 59% 30.32 in 10.0 mi ESE 11.5 mph - N/A   Clear
7:55 AM 24.8 °F 12.9 °F 10.4 °F 54% 30.33 in 10.0 mi SE 13.8 mph - N/A   Clear
8:55 AM 28.4 °F 20.4 °F 10.4 °F 47% 30.33 in 10.0 mi SE 8.1 mph - N/A   Clear
9:15 AM 30.2 °F 21.3 °F 12.2 °F 47% 30.32 in 10.0 mi SE 10.4 mph - N/A   Clear
9:35 AM 30.2 °F 23.4 °F 12.2 °F 47% 30.32 in 10.0 mi SSE 6.9 mph - N/A   Clear
9:55 AM 32.0 °F 25.6 °F 12.2 °F 44% 30.32 in 10.0 mi SE 6.9 mph - N/A   Clear
10:15 AM 33.8 °F 27.7 °F 12.2 °F 41% 30.32 in 10.0 mi SE 6.9 mph - N/A   Clear
11:55 AM 44.6 °F 39.7 °F 12.2 °F 27% 30.26 in - ESE 9.2 mph - N/A   Unknown
12:55 PM - - - N/A% - - North - - N/A   Unknown
1:15 PM 48.2 °F - 15.8 °F 27% 30.22 in 10.0 mi NNW 9.2 mph - N/A   Clear
1:35 PM 51.8 °F - 15.8 °F 24% 30.21 in 10.0 mi NNW 11.5 mph - N/A   Clear
2:15 PM 53.6 °F - 15.8 °F 22% 30.19 in 10.0 mi WNW 13.8 mph 18.4 mph N/A   Unknown
2:35 PM 53.6 °F - 14.0 °F 21% 30.19 in 10.0 mi WNW 12.7 mph - N/A   Clear
2:55 PM 53.6 °F - 14.0 °F 21% 30.18 in 10.0 mi West 13.8 mph 17.3 mph N/A   Clear
3:15 PM 53.6 °F - 15.8 °F 22% 30.18 in 10.0 mi WSW 15.0 mph 21.9 mph N/A   Clear
3:55 PM 50.0 °F - 14.0 °F 24% 30.18 in 10.0 mi West 11.5 mph 19.6 mph N/A   Unknown
4:15 PM 48.2 °F - 14.0 °F 25% 30.18 in 10.0 mi WNW 9.2 mph - N/A   Clear
4:35 PM 46.4 °F 42.9 °F 14.0 °F 27% 30.18 in 10.0 mi WNW 6.9 mph - N/A   Clear
4:55 PM 44.6 °F 43.1 °F 14.0 °F 29% 30.17 in 10.0 mi West 3.5 mph - N/A   Clear
5:15 PM 42.8 °F 41.1 °F 12.2 °F 29% 30.18 in 10.0 mi South 3.5 mph - N/A   Clear
5:35 PM 44.6 °F - 14.0 °F 29% 30.17 in 10.0 mi Calm Calm - N/A   Clear
5:55 PM 42.8 °F - 12.2 °F 29% 30.17 in 10.0 mi Calm Calm - N/A   Clear
6:15 PM 42.8 °F - 14.0 °F 31% 30.17 in 10.0 mi Calm Calm - N/A   Clear
6:35 PM 37.4 °F 33.8 °F 12.2 °F 36% 30.18 in 10.0 mi WSW 4.6 mph - N/A   Clear
6:55 PM 35.6 °F 32.8 °F 12.2 °F 38% 30.18 in 10.0 mi WSW 3.5 mph - N/A   Clear
7:15 PM 37.4 °F 33.8 °F 14.0 °F 38% 30.18 in 10.0 mi West 4.6 mph - N/A   Clear
7:35 PM 33.8 °F - 10.4 °F 38% 30.19 in 10.0 mi Calm Calm - N/A   Clear
7:55 PM 33.8 °F 29.6 °F 12.2 °F 41% 30.18 in 10.0 mi SE 4.6 mph - N/A   Clear
10:55 PM - - - N/A% 30.16 in - North - - N/A   Unknown
11:15 PM 30.2 °F 21.3 °F 15.8 °F 55% 30.17 in 10.0 mi SE 10.4 mph - N/A   Unknown
11:35 PM - - - N/A% - - Calm Calm - N/A   Unknown